Weather History for Aberdeen / Amory, MS

Change the Weather History Date:

Thursday, June 28, 2012

  Actual Average (KCBM) Record (KCBM)
Temperature  
Mean Temperature 81 °F -  
Max Temperature 102 °F 87 °F 100 °F (2012)
Min Temperature 60 °F 69 °F 60 °F (2006)
Cooling Degree Days 16    
Growing Degree Days 31 (Base 50)    
Moisture  
Dew Point 68 °F    
Average Humidity 62    
Maximum Humidity 89    
Minimum Humidity 52    
Precipitation  
Precipitation 0.00 in - - ()
Sea Level Pressure  
Sea Level Pressure 30.02 in    
Wind  
Wind Speed 1 mph ()    
Max Wind Speed 7 mph    
Max Gust Speed -    
Visibility 8.3 miles    
Events      
Averages and records for this station are not official NWS values.
T = Trace of Precipitation, MM = Missing Value Source: Averaged Metar Reports

Daily Weather History Graph

Daily Weather History Graph

Search for Another Location

Airport:

Trip Planner

Search our weather history database for the weather conditions in past years. The results will help you decide how hot, cold, wet, or windy it might be!

Date:

Astronomy

Jun. 28, 2012 Rise Set
Actual Time 5:45 AM CDT 8:08 PM CDT
Civil Twilight 5:16 AM CDT 8:37 PM CDT
Nautical Twilight 4:40 AM CDT 9:13 PM CDT
Astronomical Twilight 4:01 AM CDT 9:52 PM CDT
Moon 2:50 PM CDT (6/28) 1:08 AM CDT (6/28)
Length of Visible Light 15h 21m
Length of Day
14h 23m
Waxing Gibbous, 67% of the Moon is Illuminated
Jun 28
Waxing Gibbous
Jul 3
Full
Jul 10
Last Quarter
Jul 18
New
Jul 26
First Quarter

Hourly Weather History & Observations

Time (CDT) Temp. Heat Index Dew Point Humidity Pressure Visibility Wind Dir Wind Speed Gust Speed Precip Events Conditions
12:15 AM 68.0 °F - 51.8 °F 56% 30.00 in 10.0 mi Calm Calm - N/A   Clear
12:35 AM 66.2 °F - 50.0 °F 56% 30.00 in 10.0 mi Calm Calm - N/A   Clear
12:55 AM 66.2 °F - 50.0 °F 56% 30.00 in 9.0 mi Calm Calm - N/A   Clear
1:15 AM 66.2 °F - 48.2 °F 52% 30.00 in 9.0 mi Calm Calm - N/A   Clear
1:35 AM 64.4 °F - 48.2 °F 56% 30.00 in 9.0 mi Calm Calm - N/A   Clear
1:55 AM 66.2 °F - 50.0 °F 56% 30.00 in 9.0 mi Calm Calm - N/A   Clear
2:15 AM 64.4 °F - 48.2 °F 56% 30.00 in 7.0 mi Calm Calm - N/A   Clear
2:35 AM 64.4 °F - 48.2 °F 56% 30.00 in 8.0 mi Calm Calm - N/A   Clear
2:55 AM 64.4 °F - 48.2 °F 56% 30.00 in 7.0 mi Calm Calm - N/A   Clear
3:15 AM 66.2 °F - 48.2 °F 52% 30.00 in 7.0 mi Calm Calm - N/A   Clear
3:35 AM 64.4 °F - 48.2 °F 56% 30.00 in 7.0 mi Calm Calm - N/A   Clear
3:55 AM 64.4 °F - 48.2 °F 56% 30.00 in 8.0 mi Calm Calm - N/A   Clear
4:15 AM 64.4 °F - 46.4 °F 52% 30.00 in 6.0 mi Calm Calm - N/A   Haze
4:35 AM 62.6 °F - 46.4 °F 55% 30.00 in 5.0 mi Calm Calm - N/A   Haze
4:55 AM 62.6 °F - 46.4 °F 55% 30.01 in 7.0 mi Calm Calm - N/A   Clear
5:15 AM 62.6 °F - 46.4 °F 55% 30.02 in 5.0 mi Calm Calm - N/A   Haze
5:35 AM 62.6 °F - 46.4 °F 55% 30.02 in 5.0 mi Calm Calm - N/A   Haze
5:55 AM 62.6 °F - 44.6 °F 52% 30.02 in 6.0 mi Calm Calm - N/A   Haze
6:15 AM 60.8 °F - 44.6 °F 55% 30.03 in 6.0 mi Calm Calm - N/A   Haze
6:35 AM 62.6 °F - 46.4 °F 55% 30.05 in 7.0 mi Calm Calm - N/A   Clear
6:55 AM 64.4 °F - 48.2 °F 56% 30.05 in 7.0 mi Calm Calm - N/A   Clear
7:15 AM 68.0 °F - 51.8 °F 56% 30.05 in 5.0 mi Calm Calm - N/A   Haze
7:35 AM 71.6 °F - 55.4 °F 57% 30.05 in 7.0 mi Calm Calm - N/A   Clear
7:55 AM 73.4 °F - 57.2 °F 57% 30.06 in 6.0 mi SSW 3.5 mph - N/A   Haze
8:15 AM 75.2 °F - 59.0 °F 57% 30.06 in 6.0 mi Calm Calm - N/A   Haze
8:35 AM 78.8 °F - 60.8 °F 54% 30.07 in 7.0 mi SSW 4.6 mph - N/A   Clear
8:55 AM 80.6 °F 81.8 °F 62.6 °F 54% 30.07 in 8.0 mi Calm Calm - N/A   Clear
9:15 AM 82.4 °F 83.9 °F 64.4 °F 54% 30.07 in 8.0 mi Calm Calm - N/A   Clear
9:35 AM 84.2 °F 86.6 °F 66.2 °F 55% 30.07 in 8.0 mi West 3.5 mph - N/A   Clear
9:55 AM 86.0 °F 90.4 °F 69.8 °F 58% 30.07 in 8.0 mi Calm Calm - N/A   Clear
10:15 AM 89.6 °F 96.2 °F 71.6 °F 55% 30.08 in 8.0 mi Calm Calm - N/A   Clear
10:35 AM 89.6 °F 96.2 °F 71.6 °F 55% 30.08 in 8.0 mi Calm Calm - N/A   Clear
11:15 AM 93.2 °F 105.0 °F 75.2 °F 56% 30.08 in 9.0 mi Calm Calm - N/A   Clear
11:35 AM 96.8 °F 112.2 °F 77.0 °F 53% 30.07 in 9.0 mi Calm Calm - N/A   Clear
12:15 PM 98.6 °F 120.3 °F 80.6 °F 56% 30.07 in 10.0 mi SW 5.8 mph - N/A   Partly Cloudy
12:35 PM 100.4 °F 122.7 °F 80.6 °F 53% 30.07 in 9.0 mi West 5.8 mph - N/A   Partly Cloudy
12:55 PM 100.4 °F 122.7 °F 80.6 °F 53% 30.06 in 9.0 mi SSW 5.8 mph - N/A   Clear
1:15 PM 100.4 °F 126.1 °F 82.4 °F 56% 30.06 in 10.0 mi SW 4.6 mph - N/A   Clear
1:35 PM 100.4 °F 126.1 °F 82.4 °F 56% 30.06 in 10.0 mi WSW 3.5 mph - N/A   Partly Cloudy
1:55 PM 100.4 °F 126.1 °F 82.4 °F 56% 30.05 in 10.0 mi SW 6.9 mph - N/A   Partly Cloudy
2:15 PM 102.2 °F 128.5 °F 82.4 °F 53% 30.04 in 10.0 mi WNW 5.8 mph - N/A   Clear
2:35 PM 102.2 °F 128.5 °F 82.4 °F 53% 30.04 in 9.0 mi South 3.5 mph - N/A   Clear
2:55 PM 102.2 °F 128.5 °F 82.4 °F 53% 30.03 in 8.0 mi South 5.8 mph - N/A   Clear
3:15 PM 102.2 °F 133.6 °F 84.2 °F 57% 30.03 in 9.0 mi SSW 3.5 mph - N/A   Clear
3:35 PM 102.2 °F 143.4 °F 87.8 °F 64% 30.02 in 10.0 mi SW 5.8 mph - N/A   Clear
3:55 PM 102.2 °F 148.0 °F 89.6 °F 67% 30.02 in 10.0 mi South 4.6 mph - N/A   Clear
4:15 PM 102.2 °F 148.0 °F 89.6 °F 67% 30.01 in 9.0 mi SSW 6.9 mph - N/A   Clear
4:35 PM 102.2 °F 148.0 °F 89.6 °F 67% 30.00 in 9.0 mi SW 5.8 mph - N/A   Clear
4:55 PM 102.2 °F 143.4 °F 87.8 °F 64% 30.00 in 9.0 mi SSW 4.6 mph - N/A   Clear
5:15 PM 102.2 °F 143.4 °F 87.8 °F 64% 30.00 in 10.0 mi WSW 5.8 mph - N/A   Clear
5:35 PM 100.4 °F 140.2 °F 87.8 °F 67% 29.99 in 8.0 mi Calm Calm - N/A   Clear
5:55 PM 100.4 °F 136.1 °F 86.0 °F 64% 30.00 in 10.0 mi WSW 4.6 mph - N/A   Clear
6:15 PM 100.4 °F 140.2 °F 87.8 °F 67% 29.99 in 10.0 mi WSW 4.6 mph - N/A   Clear
6:35 PM 100.4 °F 140.2 °F 87.8 °F 67% 29.99 in 10.0 mi Calm Calm - N/A   Clear
6:55 PM 98.6 °F 138.1 °F 87.8 °F 71% 29.99 in 10.0 mi SSW 3.5 mph - N/A   Clear
7:15 PM 98.6 °F 138.1 °F 87.8 °F 71% 29.99 in 9.0 mi SSE 3.5 mph - N/A   Clear
7:35 PM 95.0 °F 123.7 °F 84.2 °F 71% 29.99 in 9.0 mi Calm Calm - N/A   Clear
8:15 PM 89.6 °F 108.2 °F 80.6 °F 75% 29.99 in 9.0 mi Calm Calm - N/A   Clear
8:35 PM 84.2 °F 96.1 °F 78.8 °F 84% 29.98 in 9.0 mi Calm Calm - N/A   Clear
9:15 PM 80.6 °F 86.2 °F 75.2 °F 84% 29.99 in 10.0 mi Calm Calm - N/A   Clear
9:35 PM 80.6 °F 85.4 °F 73.4 °F 79% 29.99 in 10.0 mi Calm Calm - N/A   Clear
9:55 PM 78.8 °F - 73.4 °F 83% 30.00 in 10.0 mi Calm Calm - N/A   Clear
10:15 PM 77.0 °F - 73.4 °F 89% 30.01 in 9.0 mi Calm Calm - N/A   Clear
10:35 PM 77.0 °F - 71.6 °F 83% 30.01 in 8.0 mi Calm Calm - N/A   Clear
10:55 PM 75.2 °F - 71.6 °F 89% 30.01 in 8.0 mi Calm Calm - N/A   Clear
11:15 PM 75.2 °F - 71.6 °F 89% 30.01 in 8.0 mi Calm Calm - N/A   Clear
11:35 PM 75.2 °F - 71.6 °F 89% 30.01 in 7.0 mi Calm Calm - N/A   Clear
11:55 PM 75.2 °F - 71.6 °F 89% 30.01 in 7.0 mi Calm Calm - N/A   Clear